Simultaneous Nadir Overpasses (SNOs) Predictions

Prediction of SNOs between NOAA-19 and TERRA Satellite Orbit:

Table of predicted SNOs for the next 14.0 days since TLE Epoch: 2/15/2014
Index Date (NOAA-19) Time (NOAA-19) Lat,Lon (NOAA-19) SZA (NOAA-19 ) Date (TERRA) Time (TERRA) Lat,Lon (TERRA) SZA (TERRA ) Distance(km) Time Diff (sec)
1 02/15/2014 12:12:05 70.18, -2.17 82.70 02/15/2014 12:12:33 70.21, -2.19 82.72 2.71 28
2 02/15/2014 13:03:01 -70.09, 165.24 97.41 02/15/2014 13:02:03 -70.09, 165.27 97.41 1.29 58
3 02/17/2014 16:56:08 70.24, -73.25 82.00 02/17/2014 16:56:51 70.25, -73.21 82.00 1.98 43
4 02/17/2014 17:47:04 -70.12, 94.21 98.15 02/17/2014 17:46:21 -70.14, 94.26 98.13 3.24 43
5 02/19/2014 21:40:10 70.26,-144.26 81.23 02/19/2014 21:41:09 70.25,-144.28 81.22 0.94 59
6 02/19/2014 22:31:07 -70.16, 23.16 98.89 02/19/2014 22:30:39 -70.14, 23.19 98.90 1.97 28
7 02/22/2014 02:24:13 70.34, 144.63 80.52 02/22/2014 02:25:25 70.32, 144.74 80.49 4.84 72
8 02/22/2014 03:15:09 -70.15, -47.82 99.69 02/22/2014 03:14:56 -70.16, -47.86 99.69 1.52 13
9 02/24/2014 07:08:24 70.85, 72.80 80.24 02/24/2014 07:09:33 70.78, 74.36 80.14 57.35 69
10 02/24/2014 07:59:12 -70.21,-118.90 100.44 02/24/2014 07:59:12 -70.18,-118.90 100.47 3.51 0
11 02/24/2014 08:49:59 69.33, 49.68 78.66 02/24/2014 08:48:51 69.40, 47.68 78.76 78.71 68
12 02/26/2014 12:43:14 -70.22, 170.09 101.24 02/26/2014 12:43:27 -70.21, 170.08 101.26 1.82 13
13 02/26/2014 13:34:10 69.85, -22.09
